Date String (YYYY-MM-DD hh:mm:ss) UTC,Instrument flags,absolute air pressure of the measurement (hPa),sample flow rate (lpm),inlet stack bypass flow (lpm),air temperature of the measurement (°C),ambient temperature measured by the external sensor (°C),aerosol sample conditioner tube jacket temperature (°C),OPC LED temperature (°C),internal box temperature (°C),relative humidity of the measurement (%),span deviation,mass concentration of particles derived from Lorenz-Mie calculation of OPC scattering (μg/m³),mass concentration of particles derived from Lorenz-Mie calculation of OPC scattering (μg/m³),mass concentration of particles derived from Lorenz-Mie calculation of OPC scattering (μg/m³)
DateTimeUTC,F1_M11,P_M11,Q1_M11,Q2_M11,T1_M11,T2_M11,T3_M11,T4_M11,T5_M11,U1_M11,ZSPAN_M11,X2_M11,X0_M11,X1_M11
2023-11-13 07:00:00,SystemResetWarning,0838.0,5.00,000.00,026.1,024.8,000.0,034.6,027.4,7.9,0000.0,0003.18,0008.72,0002.32
2023-11-13 07:01:00,SystemResetWarning,0838.0,5.00,000.00,026.1,024.8,000.0,034.6,027.3,8.0,0000.0,0003.15,0008.63,0002.30
2023-11-13 07:02:00,SystemResetWarning,0837.9,5.00,000.00,026.0,024.8,000.0,034.6,027.4,7.9,0000.0,0003.13,0008.13,0002.30
2023-11-13 07:03:00,SystemResetWarning,0837.8,5.00,000.00,026.0,024.8,000.0,034.5,027.3,7.9,0000.0,0003.11,0007.90,0002.29
2023-11-13 07:04:00,SystemResetWarning,0837.8,5.00,000.00,026.0,024.7,000.0,034.5,027.4,7.9,0000.0,0003.11,0008.41,0002.29
2023-11-13 07:05:00,SystemResetWarning,0837.8,5.00,000.00,026.0,024.7,000.0,034.5,027.3,7.9,0000.0,0003.10,0008.59,0002.29
2023-11-13 07:06:00,SystemResetWarning,0837.8,5.00,000.00,026.0,024.7,000.0,034.5,027.3,7.9,0000.0,0003.09,0008.55,0002.28
2023-11-13 07:07:00,SystemResetWarning,0837.8,5.00,000.00,026.0,024.7,000.0,034.5,027.3,7.9,0000.0,0003.03,0008.91,0002.29
2023-11-13 07:08:00,SystemResetWarning,0837.8,5.00,000.00,026.0,024.7,000.0,034.5,027.3,8.0,0000.0,0003.07,0008.87,0002.28
2023-11-13 07:09:00,SystemResetWarning,0837.8,5.00,000.00,025.9,024.7,000.0,034.4,027.3,8.0,0000.0,0003.09,0008.99,0002.30
2023-11-13 07:10:00,SystemResetWarning,0837.9,5.00,000.00,025.9,024.7,000.0,034.4,027.3,8.0,0000.0,0003.11,0009.33,0002.31
2023-11-13 07:11:00,SystemResetWarning,0837.9,5.00,000.00,025.9,024.7,000.0,034.4,027.3,8.0,0000.0,0003.12,0009.77,0002.29
2023-11-13 07:12:00,SystemResetWarning,0837.9,5.00,000.00,025.9,024.7,000.0,034.4,027.2,8.0,0000.0,0003.12,0009.79,0002.28
2023-11-13 07:13:00,SystemResetWarning,0837.8,5.00,000.00,025.9,024.7,000.0,034.4,027.2,8.0,0000.0,0003.12,0009.86,0002.28
2023-11-13 07:14:00,SystemResetWarning,0837.8,4.99,000.00,025.9,024.7,000.0,034.4,027.2,8.0,0000.0,0003.11,0009.91,0002.26
2023-11-13 07:15:00,SystemResetWarning,0837.8,5.00,000.00,025.9,024.6,000.0,034.4,027.2,8.0,0000.0,0003.11,0009.56,0002.27
2023-11-13 07:16:00,SystemResetWarning,0837.8,5.00,000.00,025.9,024.6,000.0,034.4,027.1,8.0,0000.0,0003.10,0009.05,0002.27
2023-11-13 07:17:00,SystemResetWarning,0837.8,5.00,000.00,025.9,024.6,000.0,034.3,027.1,8.0,0000.0,0003.06,0008.97,0002.27
2023-11-13 07:18:00,SystemResetWarning,0837.8,5.01,000.00,025.8,024.6,000.0,034.3,027.1,8.0,0000.0,0003.11,0008.57,0002.28
2023-11-13 07:19:00,SystemResetWarning,0837.8,5.00,000.00,025.8,024.6,000.0,034.3,027.2,8.0,0000.0,0003.08,0008.32,0002.28
2023-11-13 07:20:00,SystemResetWarning,0837.8,5.00,000.00,025.8,024.6,000.0,034.3,027.1,8.0,0000.0,0003.04,0007.93,0002.25
2023-11-13 07:21:00,SystemResetWarning,0837.8,5.00,000.00,025.8,024.6,000.0,034.3,027.2,8.1,0000.0,0003.05,0007.62,0002.24
2023-11-13 07:22:00,SystemResetWarning,0837.8,5.00,000.00,025.8,024.6,000.0,034.3,027.1,8.1,0000.0,0003.05,0007.61,0002.24
2023-11-13 07:23:00,SystemResetWarning,0837.8,5.00,000.00,025.8,024.6,000.0,034.3,027.1,8.1,0000.0,0003.02,0007.80,0002.25
2023-11-13 07:24:00,SystemResetWarning,0837.7,5.00,000.00,025.8,024.6,000.0,034.3,027.1,8.1,0000.0,0003.03,0007.68,0002.26
2023-11-13 07:25:00,SystemResetWarning,0837.8,5.01,000.00,025.8,024.6,000.0,034.3,027.1,8.1,0000.0,0003.03,0007.36,0002.26
2023-11-13 07:26:00,SystemResetWarning,0837.8,5.00,000.00,025.8,024.6,000.0,034.2,027.1,8.1,0000.0,0003.02,0006.21,0002.27
2023-11-13 07:27:00,SystemResetWarning,0837.8,4.99,000.00,025.7,024.5,000.0,034.2,027.1,8.1,0000.0,0003.06,0006.55,0002.27
2023-11-13 07:28:00,SystemResetWarning,0837.8,5.00,000.00,025.7,024.5,000.0,034.2,027.1,8.0,0000.0,0003.10,0007.30,0002.26
2023-11-13 07:29:00,SystemResetWarning,0837.8,5.00,000.00,025.7,024.5,000.0,034.2,027.1,8.0,0000.0,0003.08,0007.41,0002.24
2023-11-13 07:30:00,SystemResetWarning,0837.8,5.00,000.00,025.7,024.5,000.0,034.2,027.1,8.0,0000.0,0003.08,0008.31,0002.25
2023-11-13 07:31:00,SystemResetWarning,0837.8,5.00,000.00,025.7,024.5,000.0,034.2,027.1,8.0,0000.0,0003.10,0009.27,0002.26
2023-11-13 07:32:00,SystemResetWarning,0837.8,5.00,000.00,025.7,024.5,000.0,034.2,027.1,8.0,0000.0,0003.11,0009.40,0002.27
2023-11-13 07:33:00,SystemResetWarning,0837.8,5.00,000.00,025.7,024.5,000.0,034.2,027.0,8.0,0000.0,0003.12,0009.15,0002.27
2023-11-13 07:34:00,SystemResetWarning,0837.8,5.00,000.00,025.7,024.4,000.0,034.2,027.0,8.0,0000.0,0003.13,0009.44,0002.27
2023-11-13 07:35:00,SystemResetWarning,0837.8,5.00,000.00,025.7,024.4,000.0,034.2,027.0,8.1,0000.0,0003.15,0009.36,0002.27
2023-11-13 07:36:00,SystemResetWarning,0837.8,5.00,000.00,025.7,024.4,000.0,034.1,027.0,8.2,0000.0,0003.17,0009.47,0002.27
2023-11-13 07:37:00,SystemResetWarning,0837.8,5.00,000.00,025.6,024.4,000.0,034.1,027.0,8.2,0000.0,0003.18,0009.95,0002.27
2023-11-13 07:38:00,SystemResetWarning,0837.7,5.00,000.00,025.6,024.3,000.0,034.1,026.9,8.2,0000.0,0003.16,0010.64,0002.26
2023-11-13 07:39:00,SystemResetWarning,0837.8,4.99,000.00,025.6,024.3,000.0,034.1,026.9,8.2,0000.0,0003.15,0010.37,0002.27
2023-11-13 07:40:00,SystemResetWarning,0837.8,5.00,000.00,025.6,024.3,000.0,034.1,026.9,8.1,0000.0,0003.15,0010.16,0002.29
2023-11-13 07:41:00,SystemResetWarning,0837.8,4.99,000.00,025.6,024.3,000.0,034.1,026.9,8.1,0000.0,0003.13,0009.39,0002.27
2023-11-13 07:42:00,SystemResetWarning,0837.8,5.00,000.00,025.6,024.4,000.0,034.1,026.9,8.1,0000.0,0003.12,0009.02,0002.26
2023-11-13 07:43:00,SystemResetWarning,0837.8,5.00,000.00,025.6,024.4,000.0,034.1,026.9,8.1,0000.0,0003.10,0008.85,0002.26
2023-11-13 07:44:00,SystemResetWarning,0837.8,5.00,000.00,025.6,024.4,000.0,034.1,026.9,8.2,0000.0,0003.06,0008.74,0002.25
2023-11-13 07:45:00,SystemResetWarning,0837.8,5.00,000.00,025.6,024.4,000.0,034.0,026.9,8.1,0000.0,0003.03,0008.18,0002.25
2023-11-13 07:46:00,SystemResetWarning,0837.8,5.00,000.00,025.6,024.4,000.0,034.0,026.9,8.1,0000.0,0003.03,0008.24,0002.24
2023-11-13 07:47:00,SystemResetWarning,0837.8,5.00,000.00,025.5,024.4,000.0,034.0,026.9,8.1,0000.0,0003.00,0008.16,0002.24
2023-11-13 07:48:00,SystemResetWarning,0837.8,5.00,000.00,025.5,024.4,000.0,034.0,026.9,8.1,0000.0,0002.97,0007.77,0002.24
2023-11-13 07:49:00,SystemResetWarning,0837.8,5.00,000.00,025.5,024.4,000.0,034.0,026.9,8.1,0000.0,0003.01,0006.76,0002.24
2023-11-13 07:50:00,SystemResetWarning,0837.7,5.00,000.00,025.5,024.3,000.0,034.0,026.9,8.1,0000.0,0003.01,0006.55,0002.24
2023-11-13 07:51:00,SystemResetWarning,0837.7,5.00,000.00,025.5,024.3,000.0,034.0,026.9,8.1,0000.0,0003.01,0006.60,0002.22
2023-11-13 07:52:00,SystemResetWarning,0837.7,5.00,000.00,025.5,024.2,000.0,034.0,026.9,8.1,0000.0,0002.99,0006.40,0002.22
2023-11-13 07:53:00,SystemResetWarning,0837.7,5.00,000.00,025.5,024.2,000.0,034.0,026.8,8.1,0000.0,0003.01,0005.31,0002.23
2023-11-13 07:54:00,SystemResetWarning,0837.7,5.01,000.00,025.5,024.2,000.0,033.9,026.8,8.1,0000.0,0003.01,0005.47,0002.21
2023-11-13 07:55:00,SystemResetWarning,0837.7,5.01,000.00,025.5,024.2,000.0,033.9,026.8,8.1,0000.0,0003.02,0005.44,0002.22
2023-11-13 07:56:00,SystemResetWarning,0837.7,4.99,000.00,025.4,024.2,000.0,033.9,026.8,8.1,0000.0,0003.02,0005.58,0002.21
2023-11-13 07:57:00,SystemResetWarning,0837.7,4.99,000.00,025.5,024.2,000.0,033.9,026.8,8.1,0000.0,0002.95,0005.40,0002.20
2023-11-13 07:58:00,SystemResetWarning,0837.6,5.00,000.00,025.4,024.2,000.0,033.9,026.8,8.1,0000.0,0002.97,0005.65,0002.19
2023-11-13 07:59:00,SystemResetWarning,0837.7,5.01,000.00,025.4,024.2,000.0,033.9,026.8,8.1,0000.0,0002.94,0005.76,0002.18
